Weather History for KVTI - March, 2014

Change the Weather History Date:

Monday, March 3, 2014

  Actual Average Record
Temperature  
Mean Temperature -2 °F -  
Max Temperature 12 °F 41 °F 65 °F (1974)
Min Temperature -15 °F 24 °F -15 °F (2014)
Degree Days  
Heating Degree Days 66    
Moisture  
Dew Point -10 °F    
Average Humidity 62    
Maximum Humidity 81    
Minimum Humidity 46    
Precipitation  
Precipitation 0.00 in - - ()
Sea Level Pressure  
Sea Level Pressure 30.44 in    
Wind  
Wind Speed 5 mph (SSW)    
Max Wind Speed 14 mph    
Max Gust Speed 10 mph    
Visibility 10 miles    
Events Snow    
Averages and records for this station are not official NWS values.
T = Trace of Precipitation, MM = Missing Value Source: NWS Daily Summary

Daily Weather History Graph

Daily Weather History Graph

Search for Another Location

Airport or City:

Trip Planner

Search our weather history database for the weather conditions in past years. The results will help you decide how hot, cold, wet, or windy it might be!

Date:

Astronomy

Mar. 03, 2014 Rise Set
Actual Time 6:40 AM CST 6:00 PM CST
Civil Twilight 6:12 AM CST 6:28 PM CST
Nautical Twilight 5:39 AM CST 7:01 PM CST
Astronomical Twilight 5:07 AM CST 7:33 PM CST
Moon 7:45 AM CST (3/3) 9:08 PM CST (3/3)
Length of Visible Light 12h 16m
Length of Day
11h 20m
Waxing Crescent, 8% of the Moon is Illuminated
Mar 3
Waxing Crescent
Mar 8
First Quarter
Mar 16
Full
Mar 23
Last Quarter
Mar 30
New

Hourly Weather History & Observations

Time (CST) Temp. Windchill Dew Point Humidity Pressure Visibility Wind Dir Wind Speed Gust Speed Precip Events Conditions
12:15 AM -13.2 °F -25.3 °F -20.2 °F 71% 30.52 in 10.0 mi WNW 4.6 mph - N/A   Clear
12:35 AM -13.0 °F -25.1 °F -20.2 °F 70% 30.52 in 10.0 mi NW 4.6 mph - N/A   Clear
12:55 AM -11.2 °F -20.6 °F -18.0 °F 72% 30.52 in 10.0 mi NNW 3.5 mph - N/A   Clear
1:15 AM -13.2 °F -25.3 °F -19.7 °F 73% 30.51 in 10.0 mi NNW 4.6 mph - N/A   Clear
1:35 AM -10.7 °F - -17.5 °F 72% 30.52 in 10.0 mi Calm Calm - N/A   Clear
1:55 AM -10.7 °F -20.0 °F -17.9 °F 71% 30.51 in 10.0 mi NW 3.5 mph - N/A   Clear
2:15 AM -13.2 °F -22.9 °F -19.8 °F 72% 30.50 in 10.0 mi NNW 3.5 mph - N/A   Clear
2:35 AM -13.5 °F -29.3 °F -20.4 °F 71% 30.50 in 10.0 mi NW 6.9 mph - N/A   Clear
2:55 AM -13.2 °F -25.3 °F -19.3 °F 74% 30.49 in 10.0 mi NNW 4.6 mph - N/A   Clear
3:15 AM -13.2 °F -25.3 °F -19.3 °F 74% 30.49 in 10.0 mi NW 4.6 mph - N/A   Clear
3:35 AM -13.2 °F -25.3 °F -19.3 °F 74% 30.49 in 10.0 mi NW 4.6 mph - N/A   Clear
3:55 AM -13.0 °F -25.1 °F -19.3 °F 73% 30.49 in 10.0 mi NW 4.6 mph - N/A   Clear
4:15 AM -13.2 °F -25.3 °F -19.3 °F 74% 30.49 in 10.0 mi WNW 4.6 mph - N/A   Clear
4:35 AM -13.2 °F -27.2 °F -19.5 °F 73% 30.49 in 10.0 mi NW 5.8 mph - N/A   Clear
4:55 AM -13.2 °F -27.2 °F -19.3 °F 74% 30.50 in 10.0 mi NW 5.8 mph - N/A   Clear
5:15 AM -13.9 °F -23.7 °F -19.5 °F 76% 30.50 in 10.0 mi WNW 3.5 mph - N/A   Clear
5:35 AM -13.2 °F - -19.3 °F 74% 30.50 in 10.0 mi Calm Calm - N/A   Clear
5:55 AM -10.7 °F -22.3 °F -16.8 °F 74% 30.49 in 10.0 mi WNW 4.6 mph - N/A   Clear
6:15 AM -14.8 °F - -21.1 °F 73% 30.49 in 10.0 mi Calm Calm - N/A   Clear
6:35 AM -13.2 °F -25.3 °F -19.3 °F 74% 30.50 in 10.0 mi West 4.6 mph - N/A   Clear
6:55 AM -15.2 °F -27.6 °F -21.5 °F 73% 30.50 in 10.0 mi NW 4.6 mph - N/A   Clear
7:15 AM -13.7 °F - -20.0 °F 73% 30.51 in 10.0 mi Calm Calm - N/A   Clear
7:35 AM -13.9 °F - -20.6 °F 72% 30.52 in 10.0 mi Calm Calm - N/A   Clear
7:55 AM -10.7 °F - -17.7 °F 71% 30.52 in 10.0 mi Calm Calm - N/A   Clear
8:15 AM -9.6 °F - -17.0 °F 70% 30.52 in 10.0 mi Calm Calm - N/A   Clear
8:35 AM -8.1 °F - -15.9 °F 69% 30.53 in 10.0 mi Calm Calm - N/A   Clear
8:55 AM -5.8 °F - -15.2 °F 64% 30.52 in 10.0 mi Calm Calm - N/A   Clear
9:15 AM -3.6 °F - -13.7 °F 62% 30.51 in 10.0 mi Calm Calm - N/A   Clear
9:35 AM -3.6 °F - -13.5 °F 63% 30.52 in 10.0 mi Calm Calm - N/A   Clear
9:55 AM -3.1 °F -11.4 °F -13.2 °F 62% 30.51 in 10.0 mi ENE 3.5 mph - N/A   Clear
10:15 AM -1.5 °F - -12.1 °F 61% 30.52 in 10.0 mi Calm Calm - N/A   Clear
10:35 AM -0.4 °F -8.3 °F -11.7 °F 59% 30.52 in 10.0 mi ENE 3.5 mph - N/A   Clear
10:55 AM 1.0 °F -8.7 °F -11.9 °F 55% 30.51 in 10.0 mi ENE 4.6 mph - N/A   Clear
11:15 AM 2.8 °F -4.6 °F -10.3 °F 54% 30.50 in 10.0 mi East 3.5 mph - N/A   Clear
11:35 AM 5.2 °F - -8.0 °F 55% 30.50 in 10.0 mi Calm Calm - N/A   Clear
11:55 AM 6.8 °F -2.0 °F -8.0 °F 51% 30.50 in 10.0 mi SSW 4.6 mph - N/A   Clear
12:15 PM 8.2 °F -4.1 °F -7.6 °F 49% 30.50 in 10.0 mi SSE 8.1 mph - N/A   Clear
12:35 PM 9.5 °F 1.2 °F -6.3 °F 49% 30.50 in 10.0 mi South 4.6 mph - N/A   Clear
12:55 PM 9.5 °F -0.3 °F -6.9 °F 48% 30.49 in 10.0 mi SW 5.8 mph - N/A   Clear
1:15 PM 9.5 °F -1.5 °F -7.1 °F 47% 30.48 in 10.0 mi WSW 6.9 mph - N/A   Clear
1:35 PM 9.5 °F -2.6 °F -7.8 °F 46% 30.46 in 10.0 mi SSW 8.1 mph - N/A   Clear
1:55 PM 9.5 °F -2.6 °F -7.1 °F 47% 30.46 in 10.0 mi SW 8.1 mph - N/A   Clear
2:15 PM 10.8 °F 0.0 °F -5.8 °F 47% 30.45 in 10.0 mi SSW 6.9 mph - N/A   Clear
2:35 PM 9.5 °F -1.5 °F -6.2 °F 49% 30.44 in 10.0 mi South 6.9 mph - N/A   Clear
2:55 PM 10.4 °F 2.2 °F -6.3 °F 47% 30.43 in 10.0 mi SW 4.6 mph - N/A   Clear
3:15 PM 10.8 °F 4.5 °F -6.0 °F 47% 30.44 in 10.0 mi SW 3.5 mph - N/A   Clear
3:35 PM 10.8 °F 0.0 °F -4.2 °F 51% 30.43 in 10.0 mi SW 6.9 mph - N/A   Clear
4:00 PM 11.5 °F 3.5 °F -3.3 °F 52% 30.42 in 10.0 mi SSE 4.6 mph - N/A   Clear
4:15 PM 11.3 °F -0.4 °F -4.0 °F 50% 30.40 in 10.0 mi SSE 8.1 mph - N/A   Clear
4:35 PM 10.8 °F 0.0 °F -4.4 °F 51% 30.40 in 10.0 mi SSE 6.9 mph - N/A   Clear
4:55 PM 9.5 °F 1.2 °F -4.9 °F 52% 30.40 in 10.0 mi South 4.6 mph - N/A   Clear
5:15 PM 9.5 °F -2.6 °F -4.2 °F 54% 30.38 in 10.0 mi SSE 8.1 mph - N/A   Clear
5:35 PM 9.5 °F -1.5 °F -3.6 °F 55% 30.37 in 10.0 mi SE 6.9 mph - N/A   Clear
5:55 PM 9.5 °F -2.6 °F -3.5 °F 56% 30.36 in 10.0 mi SE 8.1 mph - N/A   Clear
6:15 PM 9.5 °F -1.5 °F -3.8 °F 55% 30.35 in 10.0 mi SSE 6.9 mph - N/A   Clear
6:35 PM 9.5 °F -0.3 °F -3.8 °F 55% 30.35 in 10.0 mi SSE 5.8 mph - N/A   Clear
6:55 PM 9.5 °F -2.6 °F -4.0 °F 54% 30.35 in 10.0 mi SSE 8.1 mph - N/A   Clear
7:15 PM 10.2 °F -2.7 °F -3.3 °F 55% 30.33 in 10.0 mi SSE 9.2 mph - N/A   Clear
7:35 PM 9.9 °F -3.1 °F -3.1 °F 56% 30.32 in 10.0 mi SSE 9.2 mph - N/A   Clear
7:55 PM 10.8 °F -3.6 °F -2.9 °F 54% 30.31 in 10.0 mi SSE 11.5 mph - N/A   Clear
8:15 PM 10.8 °F -2.0 °F -2.4 °F 56% 30.31 in 10.0 mi SSE 9.2 mph - N/A   Clear
8:40 PM 11.5 °F 0.9 °F -1.5 °F 56% 30.33 in 10.0 mi SSE 6.9 mph - N/A   Clear
8:55 PM 12.0 °F 2.7 °F -1.3 °F 55% 30.33 in 10.0 mi South 5.8 mph - N/A   Clear
9:15 PM 12.0 °F 0.5 °F -1.7 °F 54% 30.34 in 10.0 mi South 8.1 mph - N/A   Clear
9:35 PM 12.0 °F 0.5 °F -1.1 °F 56% 30.34 in 10.0 mi SSE 8.1 mph - N/A   Scattered Clouds
9:55 PM 11.7 °F -2.5 °F -1.1 °F 57% 30.32 in 10.0 mi SSE 11.5 mph - N/A   Scattered Clouds
10:15 PM 12.0 °F 4.1 °F -0.4 °F 58% 30.32 in 5.0 mi South 4.6 mph 10.4 mph N/A Snow Light Snow
10:35 PM 9.5 °F -2.6 °F 2.7 °F 74% 30.32 in 1.5 mi South 8.1 mph - N/A Snow Light Snow
10:55 PM 9.5 °F -4.4 °F 4.1 °F 79% 30.30 in 3.0 mi SSE 10.4 mph - N/A Snow Light Snow
11:15 PM 9.5 °F -5.2 °F 4.6 °F 81% 30.28 in 2.0 mi SSE 11.5 mph - N/A Snow Light Snow
11:35 PM 10.4 °F -5.4 °F 4.6 °F 78% 30.27 in 7.0 mi SSE 13.8 mph - N/A Snow Light Snow
11:55 PM 10.8 °F -2.0 °F 4.1 °F 75% 30.26 in 10.0 mi SSE 9.2 mph - N/A   Scattered Clouds